Year,Month,Day,Hour,Minute,Value (Times are PST for temperature in C)
2009,06,30,00,00,11.20
2009,06,30,00,01,11.20
2009,06,30,00,02,11.20
2009,06,30,00,03,11.20
2009,06,30,00,04,11.20
2009,06,30,00,05,11.30
2009,06,30,00,06,11.30
2009,06,30,00,07,11.30
2009,06,30,00,08,11.30
2009,06,30,00,09,11.30
2009,06,30,00,10,11.30
2009,06,30,00,11,11.30
2009,06,30,00,12,11.30
2009,06,30,00,18,11.20
2009,06,30,00,19,11.10
2009,06,30,00,20,11.10
2009,06,30,00,21,11.10
2009,06,30,00,22,11.00
2009,06,30,00,23,11.00
2009,06,30,00,24,10.90
2009,06,30,00,25,10.90
2009,06,30,00,26,10.80
2009,06,30,00,27,10.80
2009,06,30,00,28,10.80
2009,06,30,00,29,10.80
2009,06,30,00,30,10.70
2009,06,30,00,31,10.70
2009,06,30,00,32,10.70
2009,06,30,00,33,10.60
2009,06,30,00,34,10.60
2009,06,30,00,35,10.60
2009,06,30,00,36,10.60
2009,06,30,00,37,10.50
2009,06,30,00,38,10.50
2009,06,30,00,39,10.40
2009,06,30,00,40,10.40
2009,06,30,00,41,10.40
2009,06,30,00,42,10.40
2009,06,30,00,43,10.30
2009,06,30,00,44,10.30
2009,06,30,00,45,10.30
2009,06,30,00,46,10.30
2009,06,30,00,47,10.30
2009,06,30,00,48,10.30
2009,06,30,00,49,10.20
2009,06,30,00,50,10.20
2009,06,30,00,51,10.20
2009,06,30,00,52,10.20
2009,06,30,00,53,10.20
2009,06,30,00,54,10.20
2009,06,30,00,55,10.10
2009,06,30,00,56,10.10
2009,06,30,00,57,10.10
2009,06,30,00,58,10.10
2009,06,30,00,59,10.10
2009,06,30,01,00,10.00
2009,06,30,01,01,10.00
2009,06,30,01,02,10.00
2009,06,30,01,03,10.00
2009,06,30,01,04,9.90
2009,06,30,01,05,9.90
2009,06,30,01,06,9.90
2009,06,30,01,07,9.90
2009,06,30,01,08,9.90
2009,06,30,01,09,9.90
2009,06,30,01,10,9.80
2009,06,30,01,11,9.80
2009,06,30,01,12,9.80
2009,06,30,01,13,9.80
2009,06,30,01,14,9.80
2009,06,30,01,15,9.80
2009,06,30,01,16,9.80
2009,06,30,01,17,9.70
2009,06,30,01,18,9.70
2009,06,30,01,19,9.70
2009,06,30,01,20,9.70
2009,06,30,01,21,9.70
2009,06,30,01,22,9.60
2009,06,30,01,23,9.60
2009,06,30,01,24,9.60
2009,06,30,01,25,9.60
2009,06,30,01,26,9.60
2009,06,30,01,27,9.60
2009,06,30,01,28,9.60
2009,06,30,01,29,9.50
2009,06,30,01,30,9.50
2009,06,30,01,31,9.50
2009,06,30,01,32,9.50
2009,06,30,01,33,9.40
2009,06,30,01,34,9.40
2009,06,30,01,35,9.40
2009,06,30,01,36,9.40
2009,06,30,01,37,9.40
2009,06,30,01,38,9.30
2009,06,30,01,39,9.30
2009,06,30,01,40,9.30
2009,06,30,01,41,9.30
2009,06,30,01,42,9.30
2009,06,30,01,43,9.30
2009,06,30,01,44,9.30
2009,06,30,01,45,9.30
2009,06,30,01,46,9.20
2009,06,30,01,47,9.20
2009,06,30,01,48,9.20
2009,06,30,01,49,9.20
2009,06,30,01,50,9.20
2009,06,30,01,51,9.20
2009,06,30,01,52,9.10
2009,06,30,01,53,9.10
2009,06,30,01,54,9.10
2009,06,30,01,55,9.10
2009,06,30,01,56,9.10
2009,06,30,01,57,9.00
2009,06,30,01,58,9.00
2009,06,30,01,59,9.00
2009,06,30,02,00,9.00
2009,06,30,02,01,8.90
2009,06,30,02,02,8.90
2009,06,30,02,03,8.90
2009,06,30,02,04,8.90
2009,06,30,02,05,8.90
2009,06,30,02,06,8.80
2009,06,30,02,07,8.80
2009,06,30,02,08,8.80
2009,06,30,02,09,8.80
2009,06,30,02,10,8.80
2009,06,30,02,11,8.80
2009,06,30,02,12,8.70
2009,06,30,02,13,8.70
2009,06,30,02,14,8.70
2009,06,30,02,15,8.70
2009,06,30,02,16,8.60
2009,06,30,02,17,8.60
2009,06,30,02,18,8.60
2009,06,30,02,19,8.60
2009,06,30,02,20,8.60
2009,06,30,02,21,8.50
2009,06,30,02,22,8.50
2009,06,30,02,23,8.50
2009,06,30,02,24,8.50
2009,06,30,02,25,8.50
2009,06,30,02,26,8.50
2009,06,30,02,27,8.50
2009,06,30,02,28,8.50
2009,06,30,02,29,8.50
2009,06,30,02,30,8.50
2009,06,30,02,31,8.60
2009,06,30,02,32,8.50
2009,06,30,02,33,8.50
2009,06,30,02,34,8.50
2009,06,30,02,35,8.50
2009,06,30,02,36,8.50
2009,06,30,02,37,8.50
2009,06,30,02,38,8.50
2009,06,30,02,39,8.40
2009,06,30,02,40,8.40
2009,06,30,02,41,8.40
2009,06,30,02,42,8.40
2009,06,30,02,43,8.40
2009,06,30,02,44,8.40
2009,06,30,02,45,8.40
2009,06,30,02,46,8.40
2009,06,30,02,47,8.40
2009,06,30,02,48,8.50
2009,06,30,02,49,8.50
2009,06,30,02,50,8.40
2009,06,30,02,51,8.40
2009,06,30,02,52,8.40
2009,06,30,02,53,8.40
2009,06,30,02,54,8.40
2009,06,30,02,55,8.40
2009,06,30,02,56,8.40
2009,06,30,02,57,8.40
2009,06,30,02,58,8.40
2009,06,30,02,59,8.40
2009,06,30,03,00,8.40
2009,06,30,03,01,8.40
2009,06,30,03,02,8.40
2009,06,30,03,03,8.40
2009,06,30,03,04,8.40
2009,06,30,03,05,8.30
2009,06,30,03,06,8.30
2009,06,30,03,07,8.30
2009,06,30,03,08,8.30
2009,06,30,03,09,8.20
2009,06,30,03,10,8.20
2009,06,30,03,11,8.20
2009,06,30,03,12,8.20
2009,06,30,03,13,8.10
2009,06,30,03,14,8.10
2009,06,30,03,15,8.10
2009,06,30,03,16,8.00
2009,06,30,03,17,8.00
2009,06,30,03,18,8.00
2009,06,30,03,19,7.90
2009,06,30,03,20,7.90
2009,06,30,03,21,7.90
2009,06,30,03,22,7.90
2009,06,30,03,23,7.90
2009,06,30,03,24,7.90
2009,06,30,03,25,7.90
2009,06,30,03,26,7.90
2009,06,30,03,27,7.90
2009,06,30,03,28,7.90
2009,06,30,03,29,7.90
2009,06,30,03,30,7.90
2009,06,30,03,31,7.90
2009,06,30,03,32,7.90
2009,06,30,03,33,7.80
2009,06,30,03,34,7.80
2009,06,30,03,35,7.80
2009,06,30,03,36,7.80
2009,06,30,03,37,7.80
2009,06,30,03,38,7.80
2009,06,30,03,39,7.80
2009,06,30,03,40,7.80
2009,06,30,03,41,7.80
2009,06,30,03,42,7.80
2009,06,30,03,43,7.80
2009,06,30,03,44,7.80
2009,06,30,03,45,7.80
2009,06,30,03,46,7.80
2009,06,30,03,47,7.80
2009,06,30,03,48,7.80
2009,06,30,03,49,7.80
2009,06,30,03,50,7.80
2009,06,30,03,51,7.80
2009,06,30,03,52,7.80
2009,06,30,03,53,7.80
2009,06,30,03,54,7.80
2009,06,30,03,55,7.80
2009,06,30,03,56,7.80
2009,06,30,03,57,7.80
2009,06,30,03,58,7.80
2009,06,30,03,59,7.80
2009,06,30,04,00,7.80
2009,06,30,04,01,7.70
2009,06,30,04,02,7.70
2009,06,30,04,03,7.70
2009,06,30,04,04,7.70
2009,06,30,04,05,7.70
2009,06,30,04,06,7.70
2009,06,30,04,07,7.70
2009,06,30,04,08,7.60
2009,06,30,04,09,7.60
2009,06,30,04,10,7.60
2009,06,30,04,11,7.60
2009,06,30,04,12,7.60
2009,06,30,04,13,7.60
2009,06,30,04,14,7.60
2009,06,30,04,15,7.60
2009,06,30,04,16,7.60
2009,06,30,04,17,7.60
2009,06,30,04,18,7.60
2009,06,30,04,19,7.60
2009,06,30,04,20,7.60
2009,06,30,04,21,7.60
2009,06,30,04,22,7.60
2009,06,30,04,23,7.60
2009,06,30,04,24,7.50
2009,06,30,04,25,7.50
2009,06,30,04,26,7.50
2009,06,30,04,27,7.50
2009,06,30,04,28,7.50
2009,06,30,04,29,7.50
2009,06,30,04,30,7.50
2009,06,30,04,31,7.50
2009,06,30,04,32,7.50
2009,06,30,04,33,7.50
2009,06,30,04,34,7.40
2009,06,30,04,35,7.40
2009,06,30,04,36,7.40
2009,06,30,04,37,7.40
2009,06,30,04,38,7.40
2009,06,30,04,39,7.40
2009,06,30,04,40,7.40
2009,06,30,04,41,7.30
2009,06,30,04,42,7.30
2009,06,30,04,43,7.30
2009,06,30,04,44,7.30
2009,06,30,04,45,7.30
2009,06,30,04,46,7.30
2009,06,30,04,47,7.20
2009,06,30,04,48,7.20
2009,06,30,04,49,7.20
2009,06,30,04,50,7.20
2009,06,30,04,51,7.20
2009,06,30,04,52,7.20
2009,06,30,04,53,7.20
2009,06,30,04,54,7.10
2009,06,30,04,55,7.10
2009,06,30,04,56,7.10
2009,06,30,04,57,7.10
2009,06,30,04,58,7.10
2009,06,30,04,59,7.10
2009,06,30,05,00,7.00
2009,06,30,05,01,7.00
2009,06,30,05,02,7.00
2009,06,30,05,03,7.00
2009,06,30,05,04,7.00
2009,06,30,05,05,7.00
2009,06,30,05,06,6.90
2009,06,30,05,07,6.90
2009,06,30,05,08,6.90
2009,06,30,05,09,6.90
2009,06,30,05,10,6.90
2009,06,30,05,11,6.90
2009,06,30,05,12,6.90
2009,06,30,05,13,6.90
2009,06,30,05,14,6.90
2009,06,30,05,15,6.90
2009,06,30,05,16,6.90
2009,06,30,05,17,6.90
2009,06,30,05,18,6.90
2009,06,30,05,19,6.90
2009,06,30,05,20,7.00
2009,06,30,05,21,6.90
2009,06,30,05,22,6.90
2009,06,30,05,23,6.90
2009,06,30,05,24,6.90
2009,06,30,05,25,6.90
2009,06,30,05,26,6.90
2009,06,30,05,27,6.90
2009,06,30,05,28,6.90
2009,06,30,05,29,6.90
2009,06,30,05,30,6.80
2009,06,30,05,31,6.80
2009,06,30,05,32,6.80
2009,06,30,05,33,6.80
2009,06,30,05,34,6.80
2009,06,30,05,35,6.80
2009,06,30,05,36,6.80
2009,06,30,05,37,6.80
2009,06,30,05,38,6.80
2009,06,30,05,39,6.80
2009,06,30,05,40,6.80
2009,06,30,05,41,6.80
2009,06,30,05,42,6.80
2009,06,30,05,43,6.80
2009,06,30,05,44,6.70
2009,06,30,05,45,6.80
2009,06,30,05,46,6.80
2009,06,30,05,47,6.80
2009,06,30,05,48,6.80
2009,06,30,05,49,6.80
2009,06,30,05,50,6.80
2009,06,30,05,51,6.80
2009,06,30,05,52,6.80
2009,06,30,05,53,6.80
2009,06,30,05,54,6.80
2009,06,30,05,55,6.80
2009,06,30,05,56,6.80
2009,06,30,05,57,6.80
2009,06,30,05,58,6.80
2009,06,30,05,59,6.80
2009,06,30,06,00,6.90
2009,06,30,06,01,6.90
2009,06,30,06,02,6.90
2009,06,30,06,03,6.90
2009,06,30,06,04,6.90
2009,06,30,06,05,6.90
2009,06,30,06,06,6.90
2009,06,30,06,07,6.90
2009,06,30,06,08,7.00
2009,06,30,06,09,7.00
2009,06,30,06,10,7.00
2009,06,30,06,11,7.00
2009,06,30,06,12,7.10
2009,06,30,06,13,7.10
2009,06,30,06,14,7.10
2009,06,30,06,15,7.10
2009,06,30,06,16,7.10
2009,06,30,06,17,7.20
2009,06,30,06,18,7.20
2009,06,30,06,19,7.20
2009,06,30,06,20,7.20
2009,06,30,06,21,7.20
2009,06,30,06,22,7.20
2009,06,30,06,23,7.20
2009,06,30,06,24,7.20
2009,06,30,06,25,7.20
2009,06,30,06,26,7.20
2009,06,30,06,27,7.30
2009,06,30,06,28,7.30
2009,06,30,06,29,7.30
2009,06,30,06,30,7.30
2009,06,30,06,31,7.40
2009,06,30,06,32,7.40
2009,06,30,06,33,7.50
2009,06,30,06,34,7.50
2009,06,30,06,35,7.60
2009,06,30,06,36,7.60
2009,06,30,06,37,7.70
2009,06,30,06,38,7.70
2009,06,30,06,39,7.70
2009,06,30,06,40,7.80
2009,06,30,06,41,7.80
2009,06,30,06,42,7.90
2009,06,30,06,43,7.90
2009,06,30,06,44,8.00
2009,06,30,06,45,8.00
2009,06,30,06,46,8.10
2009,06,30,06,47,8.20
2009,06,30,06,48,8.20
2009,06,30,06,49,8.30
2009,06,30,06,50,8.30
2009,06,30,06,51,8.50
2009,06,30,06,52,8.50
2009,06,30,06,53,8.60
2009,06,30,06,54,8.70
2009,06,30,06,55,8.80
2009,06,30,06,56,8.80
2009,06,30,06,57,8.90
2009,06,30,06,58,9.00
2009,06,30,06,59,9.10
2009,06,30,07,00,9.20
2009,06,30,07,01,9.20
2009,06,30,07,02,9.30
2009,06,30,07,03,9.30
2009,06,30,07,04,9.40
2009,06,30,07,05,9.50
2009,06,30,07,06,9.60
2009,06,30,07,07,9.70
2009,06,30,07,08,9.70
2009,06,30,07,09,9.80
2009,06,30,07,10,9.90
2009,06,30,07,11,10.00
2009,06,30,07,12,10.20
2009,06,30,07,13,10.20
2009,06,30,07,14,10.40
2009,06,30,07,15,10.50
2009,06,30,07,16,10.70
2009,06,30,07,17,10.80
2009,06,30,07,18,11.00
2009,06,30,07,19,11.20
2009,06,30,07,20,11.30
2009,06,30,07,21,11.50
2009,06,30,07,22,11.70
2009,06,30,07,23,11.90
2009,06,30,07,24,12.00
2009,06,30,07,25,12.20
2009,06,30,07,26,12.40
2009,06,30,07,27,12.60
2009,06,30,07,28,12.70
2009,06,30,07,29,12.80
2009,06,30,07,30,12.80
2009,06,30,07,31,12.90
2009,06,30,07,32,13.00
2009,06,30,07,33,13.00
2009,06,30,07,34,13.10
2009,06,30,07,35,13.10
2009,06,30,07,36,13.20
2009,06,30,07,37,13.30
2009,06,30,07,38,13.40
2009,06,30,07,39,13.60
2009,06,30,07,40,13.70
2009,06,30,07,41,13.80
2009,06,30,07,42,13.90
2009,06,30,07,43,14.00
2009,06,30,07,44,14.10
2009,06,30,07,45,14.20
2009,06,30,07,46,14.20
2009,06,30,07,47,14.30
2009,06,30,07,48,14.40
2009,06,30,07,49,14.50
2009,06,30,07,50,14.50
2009,06,30,07,51,14.60
2009,06,30,07,52,14.70
2009,06,30,07,53,14.80
2009,06,30,07,54,15.00
2009,06,30,07,55,15.00
2009,06,30,07,56,15.00
2009,06,30,07,57,15.00
2009,06,30,07,58,15.20
2009,06,30,07,59,15.20
2009,06,30,08,00,15.20
2009,06,30,08,01,15.10
2009,06,30,08,02,15.10
2009,06,30,08,03,15.00
2009,06,30,08,04,15.00
2009,06,30,08,05,15.00
2009,06,30,08,06,14.80
2009,06,30,08,07,14.70
2009,06,30,08,08,14.70
2009,06,30,08,09,14.70
2009,06,30,08,10,14.70
2009,06,30,08,11,14.60
2009,06,30,08,12,14.60
2009,06,30,08,13,14.50
2009,06,30,08,14,14.40
2009,06,30,08,15,14.40
2009,06,30,08,16,14.40
2009,06,30,08,17,14.40
2009,06,30,08,18,14.50
2009,06,30,08,19,14.50
2009,06,30,08,20,14.60
2009,06,30,08,21,14.70
2009,06,30,08,22,14.70
2009,06,30,08,23,14.70
2009,06,30,08,24,14.70
2009,06,30,08,25,14.80
2009,06,30,08,26,14.70
2009,06,30,08,27,14.70
2009,06,30,08,28,14.70
2009,06,30,08,29,14.70
2009,06,30,08,30,14.80
2009,06,30,08,31,14.80
2009,06,30,08,32,14.90
2009,06,30,08,33,14.90
2009,06,30,08,34,14.90
2009,06,30,08,35,14.90
2009,06,30,08,36,15.00
2009,06,30,08,37,15.00
2009,06,30,08,38,15.00
2009,06,30,08,39,15.00
2009,06,30,08,40,15.00
2009,06,30,08,41,15.00
2009,06,30,08,42,15.00
2009,06,30,08,43,15.00
2009,06,30,08,44,15.00
2009,06,30,08,45,15.00
2009,06,30,08,46,15.00
2009,06,30,08,47,15.00
2009,06,30,08,48,15.00
2009,06,30,08,49,15.00
2009,06,30,08,50,15.00
2009,06,30,08,51,15.10
2009,06,30,08,52,15.10
2009,06,30,08,53,15.20
2009,06,30,08,54,15.20
2009,06,30,08,55,15.20
2009,06,30,08,56,15.30
2009,06,30,08,57,15.40
2009,06,30,08,58,15.50
2009,06,30,08,59,15.50
2009,06,30,09,00,15.60
2009,06,30,09,01,15.70
2009,06,30,09,02,15.70
2009,06,30,09,03,15.60
2009,06,30,09,04,15.60
2009,06,30,09,05,15.60
2009,06,30,09,06,15.50
2009,06,30,09,07,15.50
2009,06,30,09,08,15.50
2009,06,30,09,09,15.40
2009,06,30,09,10,15.40
2009,06,30,09,11,15.40
2009,06,30,09,12,15.40
2009,06,30,09,13,15.40
2009,06,30,09,14,15.50
2009,06,30,09,15,15.60
2009,06,30,09,16,15.70
2009,06,30,09,17,15.80
2009,06,30,09,18,16.00
2009,06,30,09,19,16.20
2009,06,30,09,20,16.30
2009,06,30,09,21,16.40
2009,06,30,09,22,16.50
2009,06,30,09,23,16.50
2009,06,30,09,24,16.60
2009,06,30,09,25,16.50
2009,06,30,09,26,16.40
2009,06,30,09,27,16.30
2009,06,30,09,28,16.30
2009,06,30,09,29,16.30
2009,06,30,09,30,16.40
2009,06,30,09,31,16.50
2009,06,30,09,32,16.60
2009,06,30,09,33,16.80
2009,06,30,09,34,16.80
2009,06,30,09,35,16.70
2009,06,30,09,36,16.70
2009,06,30,09,37,16.70
2009,06,30,09,38,16.70
2009,06,30,09,39,16.60
2009,06,30,09,40,16.50
2009,06,30,09,41,16.50
2009,06,30,09,42,16.50
2009,06,30,09,43,16.50
2009,06,30,09,44,16.50
2009,06,30,09,45,16.50
2009,06,30,09,46,16.60
2009,06,30,09,47,16.70
2009,06,30,09,48,16.80
2009,06,30,09,49,16.90
2009,06,30,09,50,16.90
2009,06,30,09,51,17.00
2009,06,30,09,52,17.00
2009,06,30,09,53,17.00
2009,06,30,09,54,16.90
2009,06,30,09,55,16.80
2009,06,30,09,56,16.70
2009,06,30,09,57,16.60
2009,06,30,09,58,16.60
2009,06,30,09,59,16.60
2009,06,30,10,00,16.60
2009,06,30,10,01,16.60
2009,06,30,10,02,16.60
2009,06,30,10,03,16.60
2009,06,30,10,04,16.60
2009,06,30,10,05,16.60
2009,06,30,10,06,16.60
2009,06,30,10,07,16.70
2009,06,30,10,08,16.70
2009,06,30,10,09,16.70
2009,06,30,10,10,16.70
2009,06,30,10,11,16.70
2009,06,30,10,12,16.80
2009,06,30,10,13,16.80
2009,06,30,10,14,16.90
2009,06,30,10,15,16.90
2009,06,30,10,16,16.90
2009,06,30,10,17,16.80
2009,06,30,10,18,16.80
2009,06,30,10,19,16.70
2009,06,30,10,20,16.70
2009,06,30,10,21,16.70
2009,06,30,10,22,16.70
2009,06,30,10,23,16.70
2009,06,30,10,24,16.70
2009,06,30,10,25,16.70
2009,06,30,10,26,16.70
2009,06,30,10,27,16.70
2009,06,30,10,28,16.70
2009,06,30,10,29,16.70
2009,06,30,10,30,16.70
2009,06,30,10,31,16.70
2009,06,30,10,32,16.60
2009,06,30,10,33,16.60
2009,06,30,10,34,16.70
2009,06,30,10,35,16.80
2009,06,30,10,36,16.90
2009,06,30,10,37,16.90
2009,06,30,10,38,16.80
2009,06,30,10,39,16.80
2009,06,30,10,40,16.80
2009,06,30,10,41,16.70
2009,06,30,10,42,16.70
2009,06,30,10,43,16.60
2009,06,30,10,44,16.70
2009,06,30,10,45,16.80
2009,06,30,10,46,16.90
2009,06,30,10,47,16.80
2009,06,30,10,48,16.80
2009,06,30,10,49,16.80
2009,06,30,10,50,17.00
2009,06,30,10,51,17.10
2009,06,30,10,52,17.10
2009,06,30,10,53,17.20
2009,06,30,10,54,17.20
2009,06,30,10,55,17.30
2009,06,30,10,56,17.30
2009,06,30,10,57,17.30
2009,06,30,10,58,17.10
2009,06,30,10,59,17.00
2009,06,30,11,00,16.90
2009,06,30,11,01,16.90
2009,06,30,11,02,16.90
2009,06,30,11,03,16.90
2009,06,30,11,04,16.90
2009,06,30,11,05,17.00
2009,06,30,11,06,17.00
2009,06,30,11,07,16.90
2009,06,30,11,08,16.90
2009,06,30,11,09,16.90
2009,06,30,11,10,16.90
2009,06,30,11,11,17.00
2009,06,30,11,12,17.00
2009,06,30,11,13,17.00
2009,06,30,11,14,16.90
2009,06,30,11,15,16.90
2009,06,30,11,16,16.90
2009,06,30,11,17,16.80
2009,06,30,11,18,16.80
2009,06,30,11,19,16.80
2009,06,30,11,20,16.90
2009,06,30,11,21,17.00
2009,06,30,11,22,17.20
2009,06,30,11,23,17.20
2009,06,30,11,24,17.20
2009,06,30,11,25,17.40
2009,06,30,11,26,17.60
2009,06,30,11,27,17.70
2009,06,30,11,28,17.80
2009,06,30,11,29,17.90
2009,06,30,11,30,17.90
2009,06,30,11,31,17.90
2009,06,30,11,32,17.90
2009,06,30,11,33,18.00
2009,06,30,11,34,18.00
2009,06,30,11,35,18.00
2009,06,30,11,36,18.00
2009,06,30,11,37,18.00
2009,06,30,11,38,18.10
2009,06,30,11,39,18.30
2009,06,30,11,40,18.30
2009,06,30,11,41,18.30
2009,06,30,11,42,18.40
2009,06,30,11,43,18.40
2009,06,30,11,44,18.30
2009,06,30,11,45,18.20
2009,06,30,11,46,18.10
2009,06,30,11,47,18.10
2009,06,30,11,48,18.20
2009,06,30,11,49,18.30
2009,06,30,11,50,18.40
2009,06,30,11,51,18.50
2009,06,30,11,52,18.60
2009,06,30,11,53,18.80
2009,06,30,11,54,18.80
2009,06,30,11,55,18.70
2009,06,30,11,56,18.50
2009,06,30,11,57,18.20
2009,06,30,11,58,18.10
2009,06,30,11,59,17.90
2009,06,30,12,00,17.70
2009,06,30,12,01,17.50
2009,06,30,12,02,17.40
2009,06,30,12,03,17.30
2009,06,30,12,04,17.40
2009,06,30,12,05,17.50
2009,06,30,12,06,17.60
2009,06,30,12,07,17.60
2009,06,30,12,08,17.60
2009,06,30,12,09,17.70
2009,06,30,12,10,17.60
2009,06,30,12,11,17.70
2009,06,30,12,12,17.80
2009,06,30,12,13,18.00
2009,06,30,12,14,18.00
2009,06,30,12,15,17.90
2009,06,30,12,16,17.90
2009,06,30,12,17,18.00
2009,06,30,12,18,18.00
2009,06,30,12,19,18.00
2009,06,30,12,20,18.00
2009,06,30,12,21,18.10
2009,06,30,12,22,18.10
2009,06,30,12,23,18.20
2009,06,30,12,24,18.30
2009,06,30,12,25,18.30
2009,06,30,12,26,18.30
2009,06,30,12,27,18.20
2009,06,30,12,28,18.30
2009,06,30,12,29,18.20
2009,06,30,12,30,18.10
2009,06,30,12,31,18.10
2009,06,30,12,32,18.10
2009,06,30,12,33,18.10
2009,06,30,12,34,18.10
2009,06,30,12,35,18.10
2009,06,30,12,36,18.20
2009,06,30,12,37,18.20
2009,06,30,12,38,18.30
2009,06,30,12,39,18.30
2009,06,30,12,40,18.30
2009,06,30,12,41,18.20
2009,06,30,12,42,18.20
2009,06,30,12,43,18.20
2009,06,30,12,44,18.30
2009,06,30,12,45,18.30
2009,06,30,12,46,18.30
2009,06,30,12,47,18.20
2009,06,30,12,48,18.10
2009,06,30,12,49,18.10
2009,06,30,12,50,18.30
2009,06,30,12,51,18.50
2009,06,30,12,52,18.50
2009,06,30,12,53,18.60
2009,06,30,12,54,18.60
2009,06,30,12,55,18.80
2009,06,30,12,56,18.80
2009,06,30,12,57,18.70
2009,06,30,12,58,18.70
2009,06,30,12,59,18.80
2009,06,30,13,00,18.80
2009,06,30,13,01,18.90
2009,06,30,13,02,18.90
2009,06,30,13,03,18.90
2009,06,30,13,04,18.90
2009,06,30,13,05,18.90
2009,06,30,13,06,18.90
2009,06,30,13,07,18.70
2009,06,30,13,08,18.70
2009,06,30,13,09,18.90
2009,06,30,13,10,19.00
2009,06,30,13,11,19.00
2009,06,30,13,12,18.90
2009,06,30,13,13,18.90
2009,06,30,13,14,18.80
2009,06,30,13,15,18.80
2009,06,30,13,16,18.90
2009,06,30,13,17,19.00
2009,06,30,13,18,19.10
2009,06,30,13,19,19.00
2009,06,30,13,20,18.90
2009,06,30,13,21,18.80
2009,06,30,13,22,18.80
2009,06,30,13,23,18.70
2009,06,30,13,24,18.70
2009,06,30,13,25,18.60
2009,06,30,13,26,18.60
2009,06,30,13,27,18.60
2009,06,30,13,28,18.60
2009,06,30,13,29,18.60
2009,06,30,13,30,18.60
2009,06,30,13,31,18.60
2009,06,30,13,32,18.70
2009,06,30,13,33,18.60
2009,06,30,13,34,18.60
2009,06,30,13,35,18.70
2009,06,30,13,36,18.90
2009,06,30,13,37,19.00
2009,06,30,13,38,19.10
2009,06,30,13,39,19.00
2009,06,30,13,40,18.90
2009,06,30,13,41,18.90
2009,06,30,13,42,18.80
2009,06,30,13,43,18.80
2009,06,30,13,44,18.80
2009,06,30,13,45,18.80
2009,06,30,13,46,18.90
2009,06,30,13,47,19.00
2009,06,30,13,48,19.00
2009,06,30,13,49,18.90
2009,06,30,13,50,18.80
2009,06,30,13,51,18.80
2009,06,30,13,52,18.80
2009,06,30,13,53,18.80
2009,06,30,13,54,18.80
2009,06,30,13,55,18.80
2009,06,30,13,56,18.70
2009,06,30,13,57,18.60
2009,06,30,13,58,18.50
2009,06,30,13,59,18.50
2009,06,30,14,00,18.50
2009,06,30,14,01,18.60
2009,06,30,14,02,18.70
2009,06,30,14,03,18.80
2009,06,30,14,04,18.90
2009,06,30,14,05,19.10
2009,06,30,14,06,19.20
2009,06,30,14,07,19.30
2009,06,30,14,08,19.40
2009,06,30,14,09,19.50
2009,06,30,14,10,19.60
2009,06,30,14,11,19.60
2009,06,30,14,12,19.50
2009,06,30,14,13,19.30
2009,06,30,14,14,19.20
2009,06,30,14,15,19.10
2009,06,30,14,16,19.10
2009,06,30,14,17,19.10
2009,06,30,14,18,19.10
2009,06,30,14,19,19.00
2009,06,30,14,20,19.00
2009,06,30,14,21,19.00
2009,06,30,14,22,18.90
2009,06,30,14,23,18.90
2009,06,30,14,24,19.00
2009,06,30,14,25,19.10
2009,06,30,14,26,19.30
2009,06,30,14,27,19.30
2009,06,30,14,28,19.30
2009,06,30,14,29,19.30
2009,06,30,14,30,19.30
2009,06,30,14,31,19.30
2009,06,30,14,32,19.40
2009,06,30,14,33,19.40
2009,06,30,14,34,19.40
2009,06,30,14,35,19.40
2009,06,30,14,36,19.40
2009,06,30,14,37,19.40
2009,06,30,14,38,19.40
2009,06,30,14,39,19.40
2009,06,30,14,40,19.40
2009,06,30,14,41,19.40
2009,06,30,14,42,19.30
2009,06,30,14,43,19.30
2009,06,30,14,44,19.30
2009,06,30,14,45,19.40
2009,06,30,14,46,19.40
2009,06,30,14,47,19.30
2009,06,30,14,48,19.30
2009,06,30,14,49,19.40
2009,06,30,14,50,19.50
2009,06,30,14,51,19.40
2009,06,30,14,52,19.40
2009,06,30,14,53,19.50
2009,06,30,14,54,19.60
2009,06,30,14,55,19.60
2009,06,30,14,56,19.60
2009,06,30,14,57,19.70
2009,06,30,14,58,19.80
2009,06,30,14,59,19.90
2009,06,30,15,00,20.00
2009,06,30,15,01,19.90
2009,06,30,15,02,19.90
2009,06,30,15,03,19.90
2009,06,30,15,04,19.90
2009,06,30,15,05,19.90
2009,06,30,15,06,19.90
2009,06,30,15,07,19.90
2009,06,30,15,08,20.00
2009,06,30,15,09,20.10
2009,06,30,15,10,20.10
2009,06,30,15,11,20.00
2009,06,30,15,12,20.00
2009,06,30,15,13,20.10
2009,06,30,15,14,20.10
2009,06,30,15,15,20.20
2009,06,30,15,16,20.10
2009,06,30,15,17,20.10
2009,06,30,15,18,20.20
2009,06,30,15,19,20.20
2009,06,30,15,20,20.20
2009,06,30,15,21,20.10
2009,06,30,15,22,20.00
2009,06,30,15,23,20.00
2009,06,30,15,24,20.10
2009,06,30,15,25,20.20
2009,06,30,15,26,20.30
2009,06,30,15,27,20.50
2009,06,30,15,28,20.60
2009,06,30,15,29,20.70
2009,06,30,15,30,20.80
2009,06,30,15,31,20.80
2009,06,30,15,32,20.80
2009,06,30,15,33,20.80
2009,06,30,15,34,20.70
2009,06,30,15,35,20.70
2009,06,30,15,36,20.60
2009,06,30,15,37,20.50
2009,06,30,15,38,20.40
2009,06,30,15,39,20.40
2009,06,30,15,40,20.30
2009,06,30,15,41,20.30
2009,06,30,15,42,20.40
2009,06,30,15,43,20.50
2009,06,30,15,44,20.60
2009,06,30,15,45,20.40
2009,06,30,15,46,20.30
2009,06,30,15,47,20.40
2009,06,30,15,48,20.40
2009,06,30,15,49,20.40
2009,06,30,15,50,20.30
2009,06,30,15,51,20.30
2009,06,30,15,52,20.30
2009,06,30,15,53,20.30
2009,06,30,15,54,20.40
2009,06,30,15,55,20.60
2009,06,30,15,56,20.60
2009,06,30,15,57,20.50
2009,06,30,15,58,20.50
2009,06,30,15,59,20.40
2009,06,30,16,00,20.30
2009,06,30,16,01,20.30
2009,06,30,16,02,20.40
2009,06,30,16,03,20.40
2009,06,30,16,04,20.40
2009,06,30,16,05,20.50
2009,06,30,16,06,20.50
2009,06,30,16,07,20.50
2009,06,30,16,08,20.60
2009,06,30,16,09,20.60
2009,06,30,16,10,20.70
2009,06,30,16,11,20.70
2009,06,30,16,12,20.80
2009,06,30,16,13,20.90
2009,06,30,16,14,20.80
2009,06,30,16,15,20.70
2009,06,30,16,16,20.60
2009,06,30,16,17,20.60
2009,06,30,16,18,20.60
2009,06,30,16,19,20.70
2009,06,30,16,20,20.70
2009,06,30,16,21,20.80
2009,06,30,16,22,20.80
2009,06,30,16,23,20.90
2009,06,30,16,24,20.90
2009,06,30,16,25,20.90
2009,06,30,16,26,20.80
2009,06,30,16,27,20.90
2009,06,30,16,28,20.90
2009,06,30,16,29,20.80
2009,06,30,16,30,20.90
2009,06,30,16,31,21.00
2009,06,30,16,32,21.00
2009,06,30,16,33,20.90
2009,06,30,16,34,20.90
2009,06,30,16,35,20.90
2009,06,30,16,36,20.80
2009,06,30,16,37,20.80
2009,06,30,16,38,20.90
2009,06,30,16,39,20.90
2009,06,30,16,40,21.10
2009,06,30,16,41,21.10
2009,06,30,16,42,21.20
2009,06,30,16,43,21.10
2009,06,30,16,44,21.10
2009,06,30,16,45,21.10
2009,06,30,16,46,21.10
2009,06,30,16,47,21.20
2009,06,30,16,48,21.30
2009,06,30,16,49,21.30
2009,06,30,16,50,21.20
2009,06,30,16,51,21.30
2009,06,30,16,52,21.30
2009,06,30,16,53,21.40
2009,06,30,16,54,21.40
2009,06,30,16,55,21.50
2009,06,30,16,56,21.50
2009,06,30,16,57,21.40
2009,06,30,16,58,21.50
2009,06,30,16,59,21.40
2009,06,30,17,00,21.20
2009,06,30,17,01,21.10
2009,06,30,17,02,21.00
2009,06,30,17,03,20.80
2009,06,30,17,04,20.60
2009,06,30,17,05,20.50
2009,06,30,17,06,20.50
2009,06,30,17,07,20.40
2009,06,30,17,08,20.50
2009,06,30,17,09,20.50
2009,06,30,17,10,20.60
2009,06,30,17,11,20.70
2009,06,30,17,12,20.70
2009,06,30,17,13,20.70
2009,06,30,17,14,20.70
2009,06,30,17,15,20.80
2009,06,30,17,16,20.80
2009,06,30,17,17,21.00
2009,06,30,17,18,21.00
2009,06,30,17,19,20.90
2009,06,30,17,20,20.90
2009,06,30,17,21,20.90
2009,06,30,17,22,21.00
2009,06,30,17,23,21.10
2009,06,30,17,24,21.10
2009,06,30,17,25,21.10
2009,06,30,17,26,21.20
2009,06,30,17,27,21.20
2009,06,30,17,28,21.20
2009,06,30,17,29,21.30
2009,06,30,17,30,21.20
2009,06,30,17,31,21.20
2009,06,30,17,32,21.10
2009,06,30,17,33,21.00
2009,06,30,17,34,20.80
2009,06,30,17,35,20.70
2009,06,30,17,36,20.60
2009,06,30,17,37,20.60
2009,06,30,17,38,20.50
2009,06,30,17,39,20.60
2009,06,30,17,40,20.60